STARLINK-5130, 53997

Orbit data source: Space-Track

STARLINK-5130, 53997 is a payload satellite owned by SpaceX/Seattle (US) in LEO that was launched on Wed, 05 Oct 2022 UTC via an FALCON 9 launch vehicle from the Air Force Western Test Range (AFWTR). Payload-class satellites include a variety of spacecraft equipped with specific instruments for various scientific and technological missions. These include communications satellites like Starlink; space stations such as the ISS; scientific satellites like the Hubble; Earth observation satellites from companies like Planet Labs, Umbra, and HawkEye 360; GPS; miniature CubeSats for education and research; and military/defense satellites.

Loading next visibility...
Identifier
53997, 2022-125AK
Orbit
LEO
Country
Flag of USUS
Related business
Manufacturer
SpaceX/Seattle
Mission
Operational Commercial Communications
Bus & Motor
STARLINK, Unknown motor
Mass
305 kg wet, ~290 kg dry
Launch date (UTC)
2022-10-05 (4 years ago)
Launch vehicle
FALCON 9
Launch site
Air Force Western Test Range (AFWTR)
Object type
Payload
Rocket body
Debris
Shape & HBR
Box + 1 Pan, 10.1 m
Radar Cross Section
13.562 m², Large (>1 m²)

Expand to show TLE details & history
Last TLE update: 2 days ago

TLE from 2 days ago
0 STARLINK-5130
1 53997U 22125AK  26171.18948654  .00000578  00000-0  54396-4 0  9998
2 53997  53.1612 104.0955 0001421  87.8071 272.3083 15.08831608205075
Epoch: 2026-06-20T04:32Z
TLE epoch observation values (Epoch: 2026-06-20T04:32:51.637Z)
Latitude
-0.00001°
Longitude
127.47266°
Altitude
540.621 km
Speed
7.593 km/s
True Right ascension
06h 56m 22s
True Declination
0° 00' 00"
Sunlit
Object was in daylight at epoch
Visualization orbit readout
Latitude
Unknown
Longitude
Unknown
Altitude
Unknown
Speed
Unknown
Apparent Right ascension
Unknown
Apparent Declination
Unknown
Sunlit
N/A
Visualization observer readout
Local Sidereal Time
21:29:26
Azimuth
Unknown
Elevation
Unknown
Doppler factor
Unknown
Orbital elements
Apogee altitude
541.006 km
Perigee altitude
539.04 km
Semi-major axis
6,918.16 km
Eccentricity
0.00014
Inclination
53.1612°
RAAN
104.0955°
Arg. of periapsis
87.8071°
True anomaly
272.29203°
Mean anomaly
272.3083°
Eccentric anomaly
272.30016°
Mean motion
3.77187 °/min
Orbital period
95.44 mins
BSTAR
0.000054396
Loading maneuver chart data...
Computing Atmospheric mass density...
Loading historical data...
Loading historical data...
Loading historical data...
Loading historical data...
Loading historical data...
Loading historical data...
Loading historical data...

Documentation

Showing up to 5 results
|